LiveATC.Net - Listen to live air traffic control over the Internet!


ICAO: LSZB  IATA: BRN   Airport: Bern-Belp Airport
City: Bern
Country: Switzerland   Continent: Europe
LSZB METAR Weather: LSZB 040220Z AUTO VRB01KT 6000 -RA FEW019 SCT025 BKN028 13/13 Q1001 REDZ
LSZB Flight Activity (FlightAware)
LSZB Webcam:  (Airport Webcams) 

LSZB Twr/App/Dep
Feed Status: UP   Listeners: 0
Listen in your browser - HTML5 player (in browser, HTML5)
Click here to listen with your own player (launches your MP3 player)
Archive Access: LSZB Twr/App/Dep
FacilityFrequency
LSZB Arrival/Departure127.325
LSZB Tower121.025
Airport Info

NOTICE

Unauthorized use prohibited. See LiveATC.net Terms of Service


Airport/ARTCC Code
Frequency Search
(e.g., 124.400, 128.75)
Site-wide search
 


Browse Feeds
Top 50 Feeds
Coverage Map
Bad Weather Areas

LiveATC FAQ
Offer LiveATC feed
Contact LiveATC.net
Press Inquiries

LiveATC on iPhone
LiveATC on Android

Windows Phone
Windows 8/10

LiveATC Mobile
(Mobile browser)

ATC Audio Archives
Interesting Recordings

LiveATC Forums


Home Page
About LiveATC.net
Make a Donation
Terms of Use
Privacy Policy

Canadian Air Freqs

AIRMETs/SIGMETs

FAA Airport Status
Nat'l Airspace Status
Arrival Demand Charts


Server Software By:
Icecast.org
Liquidsoap